Tracking 18840 objects as of 18-November-2017
HD Live streaming from Space Station
objects crossing your sky now

COSMOS 1241

Track COSMOS 1241 now!
10-day predictions
COSMOS 1241 is classified as:


NORAD ID: 12149
Int'l Code: 1981-006A
Perigee: 983.0 km
Apogee: 1,014.9 km
Inclination: 65.8 °
Period: 104.9 minutes
Semi major axis: 7369 km
RCS: 1.4995 m2 (large)
Launch date: January 21, 1981
Source: Commonwealth of Independent States (former USSR) (CIS)
Launch site: PLESETSK MISSILE AND SPACE COMPLEX (PKMTR)
aabbcc
Your satellite tracking list
Your tracking list is empty




NASA's NSSDC Master Catalog

Two Line Element Set (TLE):
1 12149U 81006A   17321.91038205 -.00000091  00000-0 -12041-4 0  9998
2 12149  65.8238 278.2962 0021687 239.8146 190.0312 13.72165731845126
Source of the keplerian elements: AFSPC